Regional Weather Roundup
Issued by NWS

Home | Current Version | Previous Version | Text Only | Print | Product List | Glossary Off
Versions: 1 2 3 4 5 6 7 8 9 10 11 12 13 14 15 16 17 18 19 20 21 22 23 24 25 26 27 28 29 30 31 32 33 34 35 36 37 38 39 40 41 42 43 44 45 46 47 48 49 50

000
ASUS43 KLMK 031210
RWRKY
KENTUCKY REGIONAL WEATHER ROUNDUP
NATIONAL WEATHER SERVICE LOUISVILLE KY
700 AM EST SAT DEC 03 2016

NOTE "FAIR" INDICATES FEW OR NO CLOUDS BELOW 12,000 FEET
WITH NO SIGNIFICANT WEATHER AND/OR OBSTRUCTIONS TO VISIBILITY.

KYZ001>023-026-027-061>063-070>075-031300-
WESTERN AND SOUTH CENTRAL KENTUCKY

CITY           SKY/WX    TMP DP  RH WIND       PRES   REMARKS
PADUCAH        CLOUDY    35  30  82 CALM      30.37R
HENDERSON      CLOUDY    28  25  86 SW3       30.38R
OWENSBORO      PTCLDY    29  28  96 SW5       30.39R WCI  24
HOPKINSVILLE   PTCLDY    34  30  86 CALM      30.37R
BOWLING GREEN  PTCLDY    32  30  92 NW3       30.37R
GLASGOW        CLOUDY    30  30 100 CALM      30.35R FOG
$$

KYZ024-025-028>034-038-045-046-053-031300-
NORTH CENTRAL KENTUCKY

CITY           SKY/WX    TMP DP  RH WIND       PRES   REMARKS
LOUISVILLE/SDF CLOUDY    41  29  62 N5        30.35F
LOUISVILLE/LOU CLOUDY    41  31  67 CALM      30.36S
FORT KNOX      CLOUDY    38  31  76 N3        30.33S
$$

KYZ035>037-039>044-047>052-055>060-089>105-031300-
NORTHEAST KENTUCKY

CITY           SKY/WX    TMP DP  RH WIND       PRES   REMARKS
LEXINGTON      CLOUDY    38  31  76 NW3       30.33F
COVINGTON      CLOUDY    36  34  92 W5        30.33S WCI  32
FRANKFORT      CLOUDY    39  31  72 CALM      30.33S
$$

KYZ054-064>069-076>088-106>120-031300-
SOUTHEAST KENTUCKY

CITY           SKY/WX    TMP DP  RH WIND       PRES   REMARKS
JACKSON        CLOUDY    35  30  82 CALM      30.31S
LONDON         CLOUDY    33  29  85 CALM      30.33R
SOMERSET       CLOUDY    30  30 100 CALM      30.35F
MIDDLESBORO    PTCLDY    30  29  99 CALM      30.34R
MONTICELLO     CLOUDY    26  24  92 CALM      30.35S FOG
$$




USA.gov is the U.S. government's official web portal to all federal, state and local government web resources and services.